Hourly Data Report for October 09, 2018

TORONTO CITY
ONTARIO
Current Station Operator: ECCC - MSC

43°40'00.000" N
79°24'00.000" W
112.50 m
6158355
71508
XTO

Download Data

Hourly Data (October 2018)
Hourly Data Report for October 9, 2018
TIME
LST
Temp Definition
°C
Dew Point Definition
°C
Rel Hum Definition
%
Precip. Amount Definition
mm

Wind Dir Definition
10's deg

Wind Spd Definition
km/h
Visibility Definition
km
Stn Press Definition
kPa
Hmdx Definition


Wind Chill Definition


Weather Definition


00:00 14.9 13.4 91 0.0 LegendMM LegendMM   100.78     LegendNANA
01:00 15.0 13.5 91 0.0 LegendMM LegendMM   100.75     LegendNANA
02:00 15.0 13.6 92 0.0 LegendMM LegendMM   100.73     LegendNANA
03:00 14.7 13.4 92 0.0 LegendMM LegendMM   100.73     LegendNANA
04:00 14.4 13.1 92 0.0 LegendMM LegendMM   100.74     LegendNANA
05:00 14.7 13.5 93 0.0 LegendMM LegendMM   100.75     LegendNANA
06:00 15.3 14.0 93 0.0 LegendMM LegendMM   100.78     LegendNANA
07:00 15.0 13.7 92 0.0 LegendMM LegendMM   100.80     LegendNANA
08:00 18.0 16.7 92 0.0 LegendMM LegendMM   100.79     LegendNANA
09:00 20.1 16.8 81 0.0 LegendMM LegendMM   100.78 25   LegendNANA
10:00 21.0 16.9 77 0.0 LegendMM LegendMM   100.75 26   LegendNANA
11:00 22.5 17.6 74 0.0 LegendMM LegendMM   100.71 28   LegendNANA
12:00 24.7 18.0 66 0.0 LegendMM LegendMM   100.68 31   LegendNANA
13:00 26.1 17.9 61 0.0 LegendMM LegendMM   100.59 32   LegendNANA
14:00 26.0 18.4 63 0.0 LegendMM LegendMM   100.53 32   LegendNANA
15:00 25.7 18.3 64 0.0 LegendMM LegendMM   100.49 32   LegendNANA
16:00 25.7 18.2 63 0.0 LegendMM LegendMM   100.46 32   LegendNANA
17:00 24.7 18.0 66 0.0 LegendMM LegendMM   100.45 31   LegendNANA
18:00 24.0 18.0 69 0.0 LegendMM LegendMM   100.45 30   LegendNANA
19:00 22.9 17.7 72 0.0 LegendMM LegendMM   100.46 29   LegendNANA
20:00 22.0 17.7 77 0.0 LegendMM LegendMM   100.43 28   LegendNANA
21:00 21.1 17.7 81 0.0 LegendMM LegendMM   100.40 27   LegendNANA
22:00 21.5 17.6 79 0.0 LegendMM LegendMM   100.41 27   LegendNANA
23:00 20.4 17.4 83 0.0 LegendMM LegendMM   100.38 26   LegendNANA

Notes on Data Quality.

Legend

  • E = Estimated
  • M = Missing
  • NA = Not Available*
  • [empty] = Indicates an unobserved value
Date modified: